Overview Statistics Trail Chart Weather Telemetry Raw packets
 

This is the latest recevied weather packets stored in our database for station/object N7IGG. If no packets are shown the sender has not sent any weather packets the latest 10 day(s).

<< 21 22 23 24 25 26 27 >>
Time Temp. Humidity Pressure Rain* Wind** Luminosity Snow
1778040657 15.56° C 82% 1015.6 hPa 0 mm - 0 W/m² -
1778040355 15.56° C 82% 1015.7 hPa 0 mm - 0 W/m² -
1778040050 15.56° C 82% 1015.5 hPa 0 mm - 0 W/m² -
1778039747 15.56° C 82% 1015.7 hPa 0 mm - 0 W/m² -
1778039444 15.56° C 81% 1015.3 hPa 0 mm - 0 W/m² -
1778039141 16.11° C 81% 1015.4 hPa 0 mm - 0 W/m² -
1778038838 16.11° C 81% 1015.4 hPa 0 mm - 0 W/m² -
1778038536 16.11° C 81% 1015.3 hPa 0 mm - 0 W/m² -
1778038232 16.11° C 81% 1015.1 hPa 0 mm - 0 W/m² -
1778037930 16.67° C 80% 1015.4 hPa 0 mm - 0 W/m² -
1778037627 16.67° C 80% 1015.2 hPa 0 mm - 2 W/m² -
1778037324 16.67° C 80% 1015.2 hPa 0 mm - 4 W/m² -
1778037021 16.67° C 80% 1015.2 hPa 0 mm - 7 W/m² -
1778036719 16.67° C 80% 1015.2 hPa 0 mm - 11 W/m² -
1778036416 16.67° C 81% 1014.9 hPa 0 mm - 16 W/m² -
1778036113 16.11° C 81% 1015.1 hPa 0 mm - 21 W/m² -
1778035809 15.56° C 82% 1015 hPa 0 mm - 24 W/m² -
1778035506 15.56° C 82% 1015 hPa 0 mm - 31 W/m² -
1778035202 14.44° C 81% 1015 hPa 0 mm - 35 W/m² -
1778034899 15.56° C 79% 1015 hPa 0 mm - 38 W/m² -
1778034595 17.22° C 75% 1014.9 hPa 0 mm - 44 W/m² -
1778034293 18.33° C 74% 1014.8 hPa 0 mm - 59 W/m² -
1778033991 18.33° C 74% 1014.8 hPa 0 mm - 71 W/m² -
1778033688 18.89° C 74% 1015 hPa 0 mm - 82 W/m² -
1778033385 18.89° C 75% 1015 hPa 0 mm - 95 W/m² -

* Rain latest hour (hover to see other rain measurements)
** Current wind speed in m/s (hover to see current wind gust speed)